Year,Month,Day,Hour,Minute,Value (Times are PST for temperature in C)
2021,06,25,00,00,24.70
2021,06,25,00,01,24.60
2021,06,25,00,02,24.60
2021,06,25,00,03,24.60
2021,06,25,00,04,24.50
2021,06,25,00,05,24.50
2021,06,25,00,06,24.50
2021,06,25,00,07,24.40
2021,06,25,00,08,24.40
2021,06,25,00,09,24.40
2021,06,25,00,10,24.40
2021,06,25,00,11,24.40
2021,06,25,00,12,24.40
2021,06,25,00,13,24.40
2021,06,25,00,14,24.40
2021,06,25,00,15,24.40
2021,06,25,00,16,24.40
2021,06,25,00,17,24.40
2021,06,25,00,18,24.40
2021,06,25,00,19,24.40
2021,06,25,00,20,24.40
2021,06,25,00,21,24.40
2021,06,25,00,22,24.40
2021,06,25,00,23,24.40
2021,06,25,00,24,24.40
2021,06,25,00,25,24.40
2021,06,25,00,26,24.40
2021,06,25,00,27,24.40
2021,06,25,00,28,24.40
2021,06,25,00,29,24.40
2021,06,25,00,30,24.40
2021,06,25,00,31,24.30
2021,06,25,00,32,24.30
2021,06,25,00,33,24.30
2021,06,25,00,34,24.30
2021,06,25,00,35,24.30
2021,06,25,00,36,24.30
2021,06,25,00,37,24.30
2021,06,25,00,38,24.30
2021,06,25,00,39,24.30
2021,06,25,00,40,24.30
2021,06,25,00,41,24.20
2021,06,25,00,42,24.20
2021,06,25,00,43,24.20
2021,06,25,00,44,24.30
2021,06,25,00,45,24.20
2021,06,25,00,46,24.20
2021,06,25,00,47,24.20
2021,06,25,00,48,24.20
2021,06,25,00,49,24.20
2021,06,25,00,50,24.20
2021,06,25,00,51,24.20
2021,06,25,00,52,24.20
2021,06,25,00,53,24.20
2021,06,25,00,54,24.20
2021,06,25,00,55,24.10
2021,06,25,00,56,24.10
2021,06,25,00,57,24.10
2021,06,25,00,58,24.10
2021,06,25,00,59,24.10
2021,06,25,01,00,24.00
2021,06,25,01,01,24.00
2021,06,25,01,02,24.00
2021,06,25,01,03,24.00
2021,06,25,01,04,23.90
2021,06,25,01,05,23.90
2021,06,25,01,06,23.90
2021,06,25,01,07,23.90
2021,06,25,01,08,23.90
2021,06,25,01,09,23.80
2021,06,25,01,10,23.80
2021,06,25,01,11,23.80
2021,06,25,01,12,23.80
2021,06,25,01,13,23.80
2021,06,25,01,14,23.80
2021,06,25,01,15,23.80
2021,06,25,01,16,23.80
2021,06,25,01,17,23.80
2021,06,25,01,18,23.80
2021,06,25,01,19,23.80
2021,06,25,01,20,23.80
2021,06,25,01,21,23.80
2021,06,25,01,22,23.80
2021,06,25,01,23,23.80
2021,06,25,01,24,23.80
2021,06,25,01,25,23.80
2021,06,25,01,26,23.80
2021,06,25,01,27,23.70
2021,06,25,01,28,23.70
2021,06,25,01,29,23.70
2021,06,25,01,30,23.70
2021,06,25,01,31,23.70
2021,06,25,01,32,23.70
2021,06,25,01,33,23.60
2021,06,25,01,34,23.60
2021,06,25,01,35,23.60
2021,06,25,01,36,23.60
2021,06,25,01,37,23.60
2021,06,25,01,38,23.60
2021,06,25,01,39,23.60
2021,06,25,01,40,23.70
2021,06,25,01,41,23.70
2021,06,25,01,42,23.70
2021,06,25,01,43,23.70
2021,06,25,01,44,23.70
2021,06,25,01,45,23.70
2021,06,25,01,46,23.70
2021,06,25,01,47,23.70
2021,06,25,01,48,23.70
2021,06,25,01,49,23.70
2021,06,25,01,50,23.60
2021,06,25,01,51,23.60
2021,06,25,01,52,23.60
2021,06,25,01,53,23.60
2021,06,25,01,54,23.50
2021,06,25,01,55,23.50
2021,06,25,01,56,23.50
2021,06,25,01,57,23.50
2021,06,25,01,58,23.40
2021,06,25,01,59,23.40
2021,06,25,02,00,23.40
2021,06,25,02,01,23.40
2021,06,25,02,02,23.40
2021,06,25,02,03,23.30
2021,06,25,02,04,23.30
2021,06,25,02,05,23.30
2021,06,25,02,06,23.30
2021,06,25,02,07,23.30
2021,06,25,02,08,23.30
2021,06,25,02,09,23.30
2021,06,25,02,10,23.30
2021,06,25,02,11,23.30
2021,06,25,02,12,23.30
2021,06,25,02,13,23.30
2021,06,25,02,14,23.30
2021,06,25,02,15,23.30
2021,06,25,02,16,23.30
2021,06,25,02,17,23.30
2021,06,25,02,18,23.30
2021,06,25,02,19,23.30
2021,06,25,02,20,23.30
2021,06,25,02,21,23.30
2021,06,25,02,22,23.30
2021,06,25,02,23,23.30
2021,06,25,02,24,23.30
2021,06,25,02,25,23.20
2021,06,25,02,26,23.20
2021,06,25,02,27,23.20
2021,06,25,02,28,23.20
2021,06,25,02,29,23.20
2021,06,25,02,30,23.20
2021,06,25,02,31,23.20
2021,06,25,02,32,23.20
2021,06,25,02,33,23.20
2021,06,25,02,34,23.20
2021,06,25,02,35,23.20
2021,06,25,02,36,23.10
2021,06,25,02,37,23.10
2021,06,25,02,38,23.10
2021,06,25,02,39,23.10
2021,06,25,02,40,23.10
2021,06,25,02,41,23.10
2021,06,25,02,42,23.10
2021,06,25,02,43,23.10
2021,06,25,02,44,23.10
2021,06,25,02,45,23.10
2021,06,25,02,46,23.10
2021,06,25,02,47,23.00
2021,06,25,02,48,23.00
2021,06,25,02,49,22.90
2021,06,25,02,50,22.90
2021,06,25,02,51,22.90
2021,06,25,02,52,22.90
2021,06,25,02,53,22.90
2021,06,25,02,54,22.90
2021,06,25,02,55,22.90
2021,06,25,02,56,22.90
2021,06,25,02,57,22.90
2021,06,25,02,58,22.90
2021,06,25,02,59,22.90
2021,06,25,03,00,22.90
2021,06,25,03,01,22.80
2021,06,25,03,02,22.80
2021,06,25,03,03,22.80
2021,06,25,03,04,22.80
2021,06,25,03,05,22.80
2021,06,25,03,06,22.80
2021,06,25,03,07,22.80
2021,06,25,03,08,22.70
2021,06,25,03,09,22.70
2021,06,25,03,10,22.70
2021,06,25,03,11,22.70
2021,06,25,03,12,22.70
2021,06,25,03,13,22.70
2021,06,25,03,14,22.70
2021,06,25,03,15,22.70
2021,06,25,03,16,22.60
2021,06,25,03,17,22.60
2021,06,25,03,18,22.70
2021,06,25,03,19,22.70
2021,06,25,03,20,22.60
2021,06,25,03,21,22.60
2021,06,25,03,22,22.60
2021,06,25,03,23,22.60
2021,06,25,03,24,22.60
2021,06,25,03,25,22.60
2021,06,25,03,26,22.60
2021,06,25,03,27,22.60
2021,06,25,03,28,22.60
2021,06,25,03,29,22.60
2021,06,25,03,30,22.60
2021,06,25,03,31,22.60
2021,06,25,03,32,22.60
2021,06,25,03,33,22.60
2021,06,25,03,34,22.60
2021,06,25,03,35,22.60
2021,06,25,03,36,22.60
2021,06,25,03,37,22.60
2021,06,25,03,38,22.60
2021,06,25,03,39,22.60
2021,06,25,03,40,22.60
2021,06,25,03,41,22.60
2021,06,25,03,42,22.60
2021,06,25,03,43,22.60
2021,06,25,03,44,22.60
2021,06,25,03,45,22.60
2021,06,25,03,46,22.60
2021,06,25,03,47,22.60
2021,06,25,03,48,22.60
2021,06,25,03,49,22.60
2021,06,25,03,50,22.60
2021,06,25,03,51,22.60
2021,06,25,03,52,22.50
2021,06,25,03,53,22.50
2021,06,25,03,54,22.50
2021,06,25,03,55,22.40
2021,06,25,03,56,22.40
2021,06,25,03,57,22.40
2021,06,25,03,58,22.40
2021,06,25,03,59,22.40
2021,06,25,04,00,22.30
2021,06,25,04,01,22.30
2021,06,25,04,02,22.30
2021,06,25,04,03,22.30
2021,06,25,04,04,22.20
2021,06,25,04,05,22.20
2021,06,25,04,06,22.20
2021,06,25,04,07,22.20
2021,06,25,04,08,22.10
2021,06,25,04,09,22.10
2021,06,25,04,10,22.10
2021,06,25,04,11,22.10
2021,06,25,04,12,22.10
2021,06,25,04,13,22.10
2021,06,25,04,14,22.10
2021,06,25,04,15,22.00
2021,06,25,04,16,22.00
2021,06,25,04,17,22.00
2021,06,25,04,18,21.90
2021,06,25,04,19,21.90
2021,06,25,04,20,21.90
2021,06,25,04,21,21.90
2021,06,25,04,22,21.90
2021,06,25,04,23,21.90
2021,06,25,04,24,21.90
2021,06,25,04,25,21.90
2021,06,25,04,26,21.90
2021,06,25,04,27,21.90
2021,06,25,04,28,21.90
2021,06,25,04,29,21.90
2021,06,25,04,30,21.90
2021,06,25,04,31,21.90
2021,06,25,04,32,21.90
2021,06,25,04,33,21.90
2021,06,25,04,34,21.90
2021,06,25,04,35,21.90
2021,06,25,04,36,21.90
2021,06,25,04,37,21.80
2021,06,25,04,38,21.80
2021,06,25,04,39,21.80
2021,06,25,04,40,21.80
2021,06,25,04,41,21.80
2021,06,25,04,42,21.80
2021,06,25,04,43,21.80
2021,06,25,04,44,21.80
2021,06,25,04,45,21.70
2021,06,25,04,46,21.70
2021,06,25,04,47,21.70
2021,06,25,04,48,21.70
2021,06,25,04,49,21.70
2021,06,25,04,50,21.70
2021,06,25,04,51,21.60
2021,06,25,04,52,21.60
2021,06,25,04,53,21.60
2021,06,25,04,54,21.60
2021,06,25,04,55,21.60
2021,06,25,04,56,21.60
2021,06,25,04,57,21.60
2021,06,25,04,58,21.60
2021,06,25,04,59,21.60
2021,06,25,05,00,21.60
2021,06,25,05,01,21.60
2021,06,25,05,02,21.60
2021,06,25,05,03,21.60
2021,06,25,05,04,21.60
2021,06,25,05,05,21.70
2021,06,25,05,06,21.60
2021,06,25,05,07,21.60
2021,06,25,05,08,21.60
2021,06,25,05,09,21.70
2021,06,25,05,10,21.70
2021,06,25,05,11,21.70
2021,06,25,05,12,21.70
2021,06,25,05,13,21.70
2021,06,25,05,14,21.70
2021,06,25,05,15,21.70
2021,06,25,05,16,21.70
2021,06,25,05,17,21.70
2021,06,25,05,18,21.70
2021,06,25,05,19,21.70
2021,06,25,05,20,21.70
2021,06,25,05,21,21.70
2021,06,25,05,22,21.70
2021,06,25,05,23,21.70
2021,06,25,05,24,21.70
2021,06,25,05,25,21.70
2021,06,25,05,26,21.70
2021,06,25,05,27,21.70
2021,06,25,05,28,21.70
2021,06,25,05,29,21.70
2021,06,25,05,30,21.70
2021,06,25,05,31,21.70
2021,06,25,05,32,21.70
2021,06,25,05,33,21.70
2021,06,25,05,34,21.70
2021,06,25,05,35,21.70
2021,06,25,05,36,21.70
2021,06,25,05,37,21.70
2021,06,25,05,38,21.70
2021,06,25,05,39,21.70
2021,06,25,05,40,21.70
2021,06,25,05,41,21.70
2021,06,25,05,42,21.80
2021,06,25,05,43,21.80
2021,06,25,05,44,21.80
2021,06,25,05,45,21.80
2021,06,25,05,46,21.80
2021,06,25,05,47,21.80
2021,06,25,05,48,21.90
2021,06,25,05,49,21.90
2021,06,25,05,50,21.90
2021,06,25,05,51,21.90
2021,06,25,05,52,21.90
2021,06,25,05,53,21.80
2021,06,25,05,54,21.80
2021,06,25,05,55,21.80
2021,06,25,05,56,21.80
2021,06,25,05,57,21.80
2021,06,25,05,58,21.80
2021,06,25,05,59,21.80
2021,06,25,06,00,21.80
2021,06,25,06,01,21.70
2021,06,25,06,02,21.70
2021,06,25,06,03,21.70
2021,06,25,06,04,21.70
2021,06,25,06,05,21.70
2021,06,25,06,06,21.70
2021,06,25,06,07,21.70
2021,06,25,06,08,21.70
2021,06,25,06,09,21.70
2021,06,25,06,10,21.70
2021,06,25,06,11,21.70
2021,06,25,06,12,21.70
2021,06,25,06,13,21.70
2021,06,25,06,14,21.70
2021,06,25,06,15,21.70
2021,06,25,06,16,21.80
2021,06,25,06,17,21.80
2021,06,25,06,18,21.80
2021,06,25,06,19,21.80
2021,06,25,06,20,21.80
2021,06,25,06,21,21.80
2021,06,25,06,22,21.90
2021,06,25,06,23,21.90
2021,06,25,06,24,21.90
2021,06,25,06,25,22.00
2021,06,25,06,26,22.00
2021,06,25,06,27,22.10
2021,06,25,06,28,22.10
2021,06,25,06,29,22.10
2021,06,25,06,30,22.20
2021,06,25,06,31,22.20
2021,06,25,06,32,22.20
2021,06,25,06,33,22.30
2021,06,25,06,34,22.30
2021,06,25,06,35,22.30
2021,06,25,06,36,22.30
2021,06,25,06,37,22.40
2021,06,25,06,38,22.40
2021,06,25,06,39,22.40
2021,06,25,06,40,22.40
2021,06,25,06,41,22.50
2021,06,25,06,42,22.50
2021,06,25,06,43,22.50
2021,06,25,06,44,22.50
2021,06,25,06,45,22.60
2021,06,25,06,46,22.60
2021,06,25,06,47,22.60
2021,06,25,06,48,22.70
2021,06,25,06,49,22.70
2021,06,25,06,50,22.70
2021,06,25,06,51,22.70
2021,06,25,06,52,22.70
2021,06,25,06,53,22.80
2021,06,25,06,54,22.80
2021,06,25,06,55,22.80
2021,06,25,06,56,22.80
2021,06,25,06,57,22.80
2021,06,25,06,58,22.80
2021,06,25,06,59,22.80
2021,06,25,07,00,22.80
2021,06,25,07,01,22.80
2021,06,25,07,02,22.90
2021,06,25,07,03,22.90
2021,06,25,07,04,22.90
2021,06,25,07,05,22.90
2021,06,25,07,06,22.90
2021,06,25,07,07,22.90
2021,06,25,07,08,22.90
2021,06,25,07,09,22.90
2021,06,25,07,10,22.90
2021,06,25,07,11,23.00
2021,06,25,07,12,23.00
2021,06,25,07,13,23.00
2021,06,25,07,14,23.00
2021,06,25,07,15,23.10
2021,06,25,07,16,23.10
2021,06,25,07,17,23.10
2021,06,25,07,18,23.10
2021,06,25,07,19,23.10
2021,06,25,07,20,23.10
2021,06,25,07,21,23.20
2021,06,25,07,22,23.20
2021,06,25,07,23,23.20
2021,06,25,07,24,23.20
2021,06,25,07,25,23.20
2021,06,25,07,26,23.20
2021,06,25,07,27,23.20
2021,06,25,07,28,23.20
2021,06,25,07,29,23.20
2021,06,25,07,30,23.30
2021,06,25,07,31,23.30
2021,06,25,07,32,23.30
2021,06,25,07,33,23.40
2021,06,25,07,34,23.40
2021,06,25,07,35,23.40
2021,06,25,07,36,23.40
2021,06,25,07,37,23.40
2021,06,25,07,38,23.40
2021,06,25,07,39,23.50
2021,06,25,07,40,23.50
2021,06,25,07,41,23.50
2021,06,25,07,42,23.60
2021,06,25,07,43,23.60
2021,06,25,07,44,23.60
2021,06,25,07,45,23.60
2021,06,25,07,46,23.60
2021,06,25,07,47,23.60
2021,06,25,07,48,23.60
2021,06,25,07,49,23.70
2021,06,25,07,50,23.70
2021,06,25,07,51,23.70
2021,06,25,07,52,23.70
2021,06,25,07,53,23.70
2021,06,25,07,54,23.70
2021,06,25,07,55,23.70
2021,06,25,07,56,23.80
2021,06,25,07,57,23.80
2021,06,25,07,58,23.80
2021,06,25,07,59,23.80
2021,06,25,08,00,23.90
2021,06,25,08,01,23.90
2021,06,25,08,02,23.90
2021,06,25,08,03,23.90
2021,06,25,08,04,23.90
2021,06,25,08,05,24.00
2021,06,25,08,06,24.00
2021,06,25,08,07,24.00
2021,06,25,08,08,24.10
2021,06,25,08,09,24.10
2021,06,25,08,10,24.10
2021,06,25,08,11,24.10
2021,06,25,08,12,24.10
2021,06,25,08,13,24.10
2021,06,25,08,14,24.20
2021,06,25,08,15,24.20
2021,06,25,08,16,24.30
2021,06,25,08,17,24.30
2021,06,25,08,18,24.30
2021,06,25,08,19,24.30
2021,06,25,08,20,24.30
2021,06,25,08,21,24.40
2021,06,25,08,22,24.40
2021,06,25,08,23,24.50
2021,06,25,08,24,24.50
2021,06,25,08,25,24.50
2021,06,25,08,26,24.60
2021,06,25,08,27,24.60
2021,06,25,08,28,24.60
2021,06,25,08,29,24.70
2021,06,25,08,30,24.70
2021,06,25,08,31,24.70
2021,06,25,08,32,24.70
2021,06,25,08,33,24.70
2021,06,25,08,34,24.80
2021,06,25,08,35,24.80
2021,06,25,08,36,24.80
2021,06,25,08,37,24.80
2021,06,25,08,38,24.80
2021,06,25,08,39,24.80
2021,06,25,08,40,24.90
2021,06,25,08,41,24.90
2021,06,25,08,42,24.90
2021,06,25,08,43,25.00
2021,06,25,08,44,25.00
2021,06,25,08,45,25.10
2021,06,25,08,46,25.10
2021,06,25,08,47,25.10
2021,06,25,08,48,25.10
2021,06,25,08,49,25.10
2021,06,25,08,50,25.10
2021,06,25,08,51,25.10
2021,06,25,08,52,25.10
2021,06,25,08,53,25.10
2021,06,25,08,54,25.10
2021,06,25,08,55,25.10
2021,06,25,08,56,25.10
2021,06,25,08,57,25.20
2021,06,25,08,58,25.20
2021,06,25,08,59,25.20
2021,06,25,09,00,25.30
2021,06,25,09,01,25.30
2021,06,25,09,02,25.30
2021,06,25,09,03,25.30
2021,06,25,09,04,25.30
2021,06,25,09,05,25.30
2021,06,25,09,06,25.30
2021,06,25,09,07,25.30
2021,06,25,09,08,25.30
2021,06,25,09,09,25.40
2021,06,25,09,10,25.30
2021,06,25,09,11,25.30
2021,06,25,09,12,25.30
2021,06,25,09,13,25.30
2021,06,25,09,14,25.30
2021,06,25,09,15,25.30
2021,06,25,09,16,25.30
2021,06,25,09,17,25.30
2021,06,25,09,18,25.30
2021,06,25,09,19,25.40
2021,06,25,09,20,25.40
2021,06,25,09,21,25.40
2021,06,25,09,22,25.40
2021,06,25,09,23,25.40
2021,06,25,09,24,25.40
2021,06,25,09,25,25.40
2021,06,25,09,26,25.40
2021,06,25,09,27,25.50
2021,06,25,09,28,25.50
2021,06,25,09,29,25.50
2021,06,25,09,30,25.60
2021,06,25,09,31,25.60
2021,06,25,09,32,25.60
2021,06,25,09,33,25.60
2021,06,25,09,34,25.60
2021,06,25,09,35,25.60
2021,06,25,09,36,25.60
2021,06,25,09,37,25.70
2021,06,25,09,38,25.80
2021,06,25,09,39,25.90
2021,06,25,09,40,25.90
2021,06,25,09,41,25.90
2021,06,25,09,42,25.90
2021,06,25,09,43,25.80
2021,06,25,09,44,25.80
2021,06,25,09,45,25.80
2021,06,25,09,46,25.90
2021,06,25,09,47,26.00
2021,06,25,09,48,26.10
2021,06,25,09,49,26.10
2021,06,25,09,50,26.20
2021,06,25,09,51,26.20
2021,06,25,09,52,26.20
2021,06,25,09,53,26.30
2021,06,25,09,54,26.40
2021,06,25,09,55,26.40
2021,06,25,09,56,26.40
2021,06,25,09,57,26.40
2021,06,25,09,58,26.50
2021,06,25,09,59,26.60
2021,06,25,10,00,26.60
2021,06,25,10,01,26.70
2021,06,25,10,02,26.70
2021,06,25,10,03,26.70
2021,06,25,10,04,26.70
2021,06,25,10,05,26.80
2021,06,25,10,06,26.80
2021,06,25,10,07,26.80
2021,06,25,10,08,26.90
2021,06,25,10,09,27.00
2021,06,25,10,10,27.00
2021,06,25,10,11,27.10
2021,06,25,10,12,27.10
2021,06,25,10,13,27.00
2021,06,25,10,14,27.00
2021,06,25,10,15,27.00
2021,06,25,10,16,27.10
2021,06,25,10,17,27.10
2021,06,25,10,18,27.10
2021,06,25,10,19,27.20
2021,06,25,10,20,27.30
2021,06,25,10,21,27.40
2021,06,25,10,22,27.40
2021,06,25,10,23,27.30
2021,06,25,10,24,27.40
2021,06,25,10,25,27.40
2021,06,25,10,26,27.50
2021,06,25,10,27,27.50
2021,06,25,10,28,27.50
2021,06,25,10,29,27.60
2021,06,25,10,30,27.60
2021,06,25,10,31,27.60
2021,06,25,10,32,27.60
2021,06,25,10,33,27.60
2021,06,25,10,34,27.70
2021,06,25,10,35,27.80
2021,06,25,10,36,27.80
2021,06,25,10,37,27.90
2021,06,25,10,38,28.00
2021,06,25,10,39,28.10
2021,06,25,10,40,28.10
2021,06,25,10,41,28.10
2021,06,25,10,42,28.10
2021,06,25,10,43,28.10
2021,06,25,10,44,28.10
2021,06,25,10,45,28.10
2021,06,25,10,46,28.10
2021,06,25,10,47,28.10
2021,06,25,10,48,28.10
2021,06,25,10,49,28.10
2021,06,25,10,50,28.00
2021,06,25,10,51,28.00
2021,06,25,10,52,28.00
2021,06,25,10,53,27.90
2021,06,25,10,54,28.00
2021,06,25,10,55,28.10
2021,06,25,10,56,28.20
2021,06,25,10,57,28.30
2021,06,25,10,58,28.30
2021,06,25,10,59,28.40
2021,06,25,11,00,28.50
2021,06,25,11,01,28.60
2021,06,25,11,02,28.60
2021,06,25,11,03,28.70
2021,06,25,11,04,28.70
2021,06,25,11,05,28.80
2021,06,25,11,06,28.80
2021,06,25,11,07,28.90
2021,06,25,11,08,29.00
2021,06,25,11,09,29.10
2021,06,25,11,10,29.20
2021,06,25,11,11,29.20
2021,06,25,11,12,29.30
2021,06,25,11,13,29.30
2021,06,25,11,14,29.30
2021,06,25,11,15,29.20
2021,06,25,11,16,29.30
2021,06,25,11,17,29.30
2021,06,25,11,18,29.30
2021,06,25,11,19,29.20
2021,06,25,11,20,29.20
2021,06,25,11,21,29.20
2021,06,25,11,22,29.20
2021,06,25,11,23,29.20
2021,06,25,11,24,29.10
2021,06,25,11,25,29.10
2021,06,25,11,26,29.10
2021,06,25,11,27,29.00
2021,06,25,11,28,29.00
2021,06,25,11,29,29.00
2021,06,25,11,30,29.00
2021,06,25,11,31,28.90
2021,06,25,11,32,29.00
2021,06,25,11,33,29.00
2021,06,25,11,34,29.00
2021,06,25,11,35,29.00
2021,06,25,11,36,28.90
2021,06,25,11,37,28.90
2021,06,25,11,38,28.90
2021,06,25,11,39,28.90
2021,06,25,11,40,29.00
2021,06,25,11,41,29.00
2021,06,25,11,42,29.00
2021,06,25,11,43,29.00
2021,06,25,11,44,29.00
2021,06,25,11,45,29.10
2021,06,25,11,46,29.10
2021,06,25,11,47,29.20
2021,06,25,11,48,29.20
2021,06,25,11,49,29.20
2021,06,25,11,50,29.20
2021,06,25,11,51,29.30
2021,06,25,11,52,29.30
2021,06,25,11,53,29.30
2021,06,25,11,54,29.30
2021,06,25,11,55,29.40
2021,06,25,11,56,29.40
2021,06,25,11,57,29.30
2021,06,25,11,58,29.30
2021,06,25,11,59,29.20
2021,06,25,12,00,29.20
2021,06,25,12,01,29.20
2021,06,25,12,02,29.20
2021,06,25,12,03,29.20
2021,06,25,12,04,29.30
2021,06,25,12,05,29.30
2021,06,25,12,06,29.30
2021,06,25,12,07,29.30
2021,06,25,12,08,29.40
2021,06,25,12,09,29.50
2021,06,25,12,10,29.60
2021,06,25,12,11,29.70
2021,06,25,12,12,29.70
2021,06,25,12,13,29.70
2021,06,25,12,14,29.80
2021,06,25,12,15,29.80
2021,06,25,12,16,29.90
2021,06,25,12,17,29.90
2021,06,25,12,18,30.00
2021,06,25,12,19,30.00
2021,06,25,12,20,30.10
2021,06,25,12,21,30.10
2021,06,25,12,22,30.10
2021,06,25,12,23,30.10
2021,06,25,12,24,30.10
2021,06,25,12,25,30.10
2021,06,25,12,26,30.20
2021,06,25,12,27,30.30
2021,06,25,12,28,30.30
2021,06,25,12,29,30.30
2021,06,25,12,30,30.40
2021,06,25,12,31,30.40
2021,06,25,12,32,30.50
2021,06,25,12,33,30.50
2021,06,25,12,34,30.60
2021,06,25,12,35,30.60
2021,06,25,12,36,30.60
2021,06,25,12,37,30.50
2021,06,25,12,38,30.50
2021,06,25,12,39,30.50
2021,06,25,12,40,30.40
2021,06,25,12,41,30.40
2021,06,25,12,42,30.40
2021,06,25,12,43,30.50
2021,06,25,12,44,30.60
2021,06,25,12,45,30.60
2021,06,25,12,46,30.70
2021,06,25,12,47,30.70
2021,06,25,12,48,30.80
2021,06,25,12,49,30.70
2021,06,25,12,50,30.70
2021,06,25,12,51,30.80
2021,06,25,12,52,30.80
2021,06,25,12,53,30.90
2021,06,25,12,54,30.90
2021,06,25,12,55,30.80
2021,06,25,12,56,30.90
2021,06,25,12,57,30.90
2021,06,25,12,58,31.00
2021,06,25,12,59,31.00
2021,06,25,13,00,31.10
2021,06,25,13,01,31.20
2021,06,25,13,02,31.20
2021,06,25,13,03,31.20
2021,06,25,13,04,31.30
2021,06,25,13,05,31.20
2021,06,25,13,06,31.20
2021,06,25,13,07,31.20
2021,06,25,13,08,31.20
2021,06,25,13,09,31.30
2021,06,25,13,10,31.30
2021,06,25,13,11,31.40
2021,06,25,13,12,31.40
2021,06,25,13,13,31.40
2021,06,25,13,14,31.40
2021,06,25,13,15,31.30
2021,06,25,13,16,31.30
2021,06,25,13,17,31.40
2021,06,25,13,18,31.40
2021,06,25,13,19,31.50
2021,06,25,13,20,31.50
2021,06,25,13,21,31.40
2021,06,25,13,22,31.50
2021,06,25,13,23,31.50
2021,06,25,13,24,31.50
2021,06,25,13,25,31.50
2021,06,25,13,26,31.60
2021,06,25,13,27,31.60
2021,06,25,13,28,31.60
2021,06,25,13,29,31.70
2021,06,25,13,30,31.80
2021,06,25,13,31,31.80
2021,06,25,13,32,31.80
2021,06,25,13,33,31.80
2021,06,25,13,34,31.80
2021,06,25,13,35,31.80
2021,06,25,13,36,31.80
2021,06,25,13,37,31.90
2021,06,25,13,38,32.00
2021,06,25,13,39,32.00
2021,06,25,13,40,32.10
2021,06,25,13,41,32.10
2021,06,25,13,42,32.20
2021,06,25,13,43,32.20
2021,06,25,13,44,32.20
2021,06,25,13,45,32.30
2021,06,25,13,46,32.30
2021,06,25,13,47,32.30
2021,06,25,13,48,32.30
2021,06,25,13,49,32.40
2021,06,25,13,50,32.40
2021,06,25,13,51,32.40
2021,06,25,13,52,32.50
2021,06,25,13,53,32.60
2021,06,25,13,54,32.50
2021,06,25,13,55,32.40
2021,06,25,13,56,32.30
2021,06,25,13,57,32.30
2021,06,25,13,58,32.30
2021,06,25,13,59,32.20
2021,06,25,14,00,32.30
2021,06,25,14,01,32.30
2021,06,25,14,02,32.30
2021,06,25,14,03,32.30
2021,06,25,14,04,32.30
2021,06,25,14,05,32.30
2021,06,25,14,06,32.30
2021,06,25,14,07,32.40
2021,06,25,14,08,32.50
2021,06,25,14,09,32.50
2021,06,25,14,10,32.60
2021,06,25,14,11,32.60
2021,06,25,14,12,32.50
2021,06,25,14,13,32.50
2021,06,25,14,14,32.60
2021,06,25,14,15,32.60
2021,06,25,14,16,32.70
2021,06,25,14,17,32.70
2021,06,25,14,18,32.70
2021,06,25,14,19,32.70
2021,06,25,14,20,32.70
2021,06,25,14,21,32.70
2021,06,25,14,22,32.70
2021,06,25,14,23,32.70
2021,06,25,14,24,32.70
2021,06,25,14,25,32.70
2021,06,25,14,26,32.70
2021,06,25,14,27,32.60
2021,06,25,14,28,32.70
2021,06,25,14,29,32.70
2021,06,25,14,30,32.80
2021,06,25,14,31,32.90
2021,06,25,14,32,33.00
2021,06,25,14,33,33.10
2021,06,25,14,34,33.00
2021,06,25,14,35,32.90
2021,06,25,14,36,32.90
2021,06,25,14,37,32.90
2021,06,25,14,38,32.90
2021,06,25,14,39,32.90
2021,06,25,14,40,32.90
2021,06,25,14,41,33.00
2021,06,25,14,42,33.10
2021,06,25,14,43,33.20
2021,06,25,14,44,33.10
2021,06,25,14,45,33.00
2021,06,25,14,46,33.00
2021,06,25,14,47,33.00
2021,06,25,14,48,33.00
2021,06,25,14,49,33.00
2021,06,25,14,50,33.10
2021,06,25,14,51,33.20
2021,06,25,14,52,33.20
2021,06,25,14,53,33.30
2021,06,25,14,54,33.40
2021,06,25,14,55,33.50
2021,06,25,14,56,33.50
2021,06,25,14,57,33.50
2021,06,25,14,58,33.50
2021,06,25,14,59,33.40
2021,06,25,15,00,33.40
2021,06,25,15,01,33.30
2021,06,25,15,02,33.30
2021,06,25,15,03,33.30
2021,06,25,15,04,33.40
2021,06,25,15,05,33.50
2021,06,25,15,06,33.50
2021,06,25,15,07,33.50
2021,06,25,15,08,33.50
2021,06,25,15,09,33.40
2021,06,25,15,10,33.30
2021,06,25,15,11,33.30
2021,06,25,15,12,33.30
2021,06,25,15,13,33.30
2021,06,25,15,14,33.30
2021,06,25,15,15,33.30
2021,06,25,15,16,33.40
2021,06,25,15,17,33.50
2021,06,25,15,18,33.60
2021,06,25,15,19,33.70
2021,06,25,15,20,33.80
2021,06,25,15,21,34.00
2021,06,25,15,22,34.00
2021,06,25,15,23,34.10
2021,06,25,15,24,34.00
2021,06,25,15,25,33.90
2021,06,25,15,26,34.00
2021,06,25,15,27,34.10
2021,06,25,15,28,34.10
2021,06,25,15,29,34.00
2021,06,25,15,30,33.90
2021,06,25,15,31,33.80
2021,06,25,15,32,33.70
2021,06,25,15,33,33.80
2021,06,25,15,34,33.80
2021,06,25,15,35,33.90
2021,06,25,15,36,34.00
2021,06,25,15,37,34.00
2021,06,25,15,38,34.00
2021,06,25,15,39,33.90
2021,06,25,15,40,33.90
2021,06,25,15,41,33.90
2021,06,25,15,42,34.00
2021,06,25,15,43,34.00
2021,06,25,15,44,34.10
2021,06,25,15,45,34.20
2021,06,25,15,46,34.30
2021,06,25,15,47,34.30
2021,06,25,15,48,34.30
2021,06,25,15,49,34.30
2021,06,25,15,50,34.30
2021,06,25,15,51,34.40
2021,06,25,15,52,34.30
2021,06,25,15,53,34.30
2021,06,25,15,54,34.20
2021,06,25,15,55,34.20
2021,06,25,15,56,34.20
2021,06,25,15,57,34.10
2021,06,25,15,58,34.10
2021,06,25,15,59,34.20
2021,06,25,16,00,34.10
2021,06,25,16,01,34.20
2021,06,25,16,02,34.20
2021,06,25,16,03,34.30
2021,06,25,16,04,34.30
2021,06,25,16,05,34.40
2021,06,25,16,06,34.50
2021,06,25,16,07,34.50
2021,06,25,16,08,34.50
2021,06,25,16,09,34.60
2021,06,25,16,10,34.50
2021,06,25,16,11,34.50
2021,06,25,16,12,34.50
2021,06,25,16,13,34.60
2021,06,25,16,14,34.60
2021,06,25,16,15,34.60
2021,06,25,16,16,34.60
2021,06,25,16,17,34.50
2021,06,25,16,18,34.40
2021,06,25,16,19,34.40
2021,06,25,16,20,34.40
2021,06,25,16,21,34.40
2021,06,25,16,22,34.40
2021,06,25,16,23,34.40
2021,06,25,16,24,34.40
2021,06,25,16,25,34.40
2021,06,25,16,26,34.40
2021,06,25,16,27,34.40
2021,06,25,16,28,34.40
2021,06,25,16,29,34.40
2021,06,25,16,30,34.40
2021,06,25,16,31,34.50
2021,06,25,16,32,34.60
2021,06,25,16,33,34.70
2021,06,25,16,34,34.70
2021,06,25,16,35,34.70
2021,06,25,16,36,34.70
2021,06,25,16,37,34.70
2021,06,25,16,38,34.70
2021,06,25,16,39,34.80
2021,06,25,16,40,34.80
2021,06,25,16,41,34.80
2021,06,25,16,42,34.80
2021,06,25,16,43,34.80
2021,06,25,16,44,34.80
2021,06,25,16,45,34.80
2021,06,25,16,46,34.80
2021,06,25,16,47,34.90
2021,06,25,16,48,34.90
2021,06,25,16,49,34.90
2021,06,25,16,50,34.90
2021,06,25,16,51,34.90
2021,06,25,16,52,34.90
2021,06,25,16,53,34.90
2021,06,25,16,54,34.90
2021,06,25,16,55,34.90
2021,06,25,16,56,34.90
2021,06,25,16,57,34.90
2021,06,25,16,58,34.90
2021,06,25,16,59,34.90
2021,06,25,17,00,34.90
2021,06,25,17,01,34.90
2021,06,25,17,02,34.90
2021,06,25,17,03,34.90
2021,06,25,17,04,34.90
2021,06,25,17,05,35.00
2021,06,25,17,06,35.00
2021,06,25,17,07,34.90
2021,06,25,17,08,34.90
2021,06,25,17,09,34.90
2021,06,25,17,10,34.90
2021,06,25,17,11,34.90
2021,06,25,17,12,34.90
2021,06,25,17,13,34.90
2021,06,25,17,14,35.00
2021,06,25,17,15,35.00
2021,06,25,17,16,35.00
2021,06,25,17,17,35.00
2021,06,25,17,18,35.00
2021,06,25,17,19,34.90